This is the latest recevied weather packets stored in our database for station/object 9W2KHE-10. If no packets are shown the sender has not sent any weather packets the latest 10 day(s).
| Time | Temp. | Humidity | Pressure | Rain* | Wind** | Luminosity | Snow |
|---|---|---|---|---|---|---|---|
| 1777685695 | 27.78° C | 69% | 1012.5 hPa | - | - | - | - |
| 1777684795 | 27.78° C | 70% | 1012.4 hPa | - | - | - | - |
| 1777683895 | 27.78° C | 69% | 1012.3 hPa | - | - | - | - |
| 1777682995 | 27.78° C | 68% | 1012.1 hPa | - | - | - | - |
| 1777682095 | 27.78° C | 67% | 1011.9 hPa | - | - | - | - |
| 1777681195 | 27.78° C | 66% | 1011.7 hPa | - | - | - | - |
| 1777680295 | 27.78° C | 66% | 1011.5 hPa | - | - | - | - |
| 1777679394 | 27.78° C | 66% | 1011.4 hPa | - | - | - | - |
| 1777678493 | 27.78° C | 65% | 1011.3 hPa | - | - | - | - |
| 1777677593 | 27.78° C | 64% | 1011 hPa | - | - | - | - |
| 1777676696 | 27.78° C | 65% | 1010.8 hPa | - | - | - | - |
| 1777675795 | 27.78° C | 65% | 1010.4 hPa | - | - | - | - |
| 1777674895 | 28.33° C | 63% | 1010.1 hPa | - | - | - | - |
| 1777673996 | 29.44° C | 60% | 1010 hPa | - | - | - | - |
| 1777673095 | 27.78° C | 65% | 1010.1 hPa | - | - | - | - |
| 1777672195 | 28.33° C | 64% | 1010 hPa | - | - | - | - |
| 1777671295 | 28.33° C | 65% | 1010 hPa | - | - | - | - |
| 1777670395 | 28.33° C | 64% | 1010 hPa | - | - | - | - |
| 1777669495 | 28.33° C | 65% | 1009.9 hPa | - | - | - | - |
| 1777668595 | 28.33° C | 64% | 1009.8 hPa | - | - | - | - |
| 1777667694 | 28.33° C | 64% | 1009.8 hPa | - | - | - | - |
| 1777666794 | 28.33° C | 65% | 1010 hPa | - | - | - | - |
| 1777665894 | 28.33° C | 64% | 1010.2 hPa | - | - | - | - |
| 1777664994 | 28.33° C | 64% | 1010.4 hPa | - | - | - | - |
| 1777664094 | 28.33° C | 64% | 1010.6 hPa | - | - | - | - |
* Rain since midnight (hover to see other rain measurements)
** Current wind speed in m/s (hover to see current wind gust speed)